This is the latest recevied weather packets stored in our database for station/object EA4BHK-10. If no packets are shown the sender has not sent any weather packets the latest 10 day(s).
| Time | Temp. | Humidity | Pressure | Rain* | Wind** | Luminosity | Snow |
|---|---|---|---|---|---|---|---|
| 1777922469 | 11.67° C | 67% | 1015.3 hPa | - | - | - | - |
| 1777921562 | 12.22° C | 64% | 1015 hPa | - | - | - | - |
| 1777920662 | 12.22° C | 64% | 1014.7 hPa | - | - | - | - |
| 1777919769 | 12.78° C | 63% | 1014.4 hPa | - | - | - | - |
| 1777918862 | 13.33° C | 60% | 1014 hPa | - | - | - | - |
| 1777918119 | 13.89° C | 61% | 1013.9 hPa | - | - | - | - |
| 1777917971 | 13.89° C | 61% | 1013.9 hPa | - | - | - | - |
| 1777917079 | 14.44° C | 55% | 1013.7 hPa | - | - | - | - |
| 1777916162 | 14.44° C | 58% | 1013.7 hPa | - | - | - | - |
| 1777915262 | 15° C | 53% | 1013.6 hPa | - | - | - | - |
| 1777914362 | 15° C | 54% | 1013.5 hPa | - | - | - | - |
| 1777913469 | 15° C | 51% | 1013.4 hPa | - | - | - | - |
| 1777912561 | 15.56° C | 54% | 1013.4 hPa | - | - | - | - |
| 1777911665 | 15° C | 51% | 1013.4 hPa | - | - | - | - |
| 1777910762 | 15° C | 51% | 1013.4 hPa | - | - | - | - |
| 1777909862 | 15° C | 56% | 1013.5 hPa | - | - | - | - |
| 1777908962 | 15.56° C | 56% | 1013.5 hPa | - | - | - | - |
| 1777908062 | 14.44° C | 60% | 1013.9 hPa | - | - | - | - |
| 1777907162 | 16.11° C | 59% | 1013.1 hPa | - | - | - | - |
| 1777906262 | 15° C | 60% | 1013.6 hPa | - | - | - | - |
| 1777905362 | 16.11° C | 61% | 1013.6 hPa | - | - | - | - |
| 1777903562 | 14.44° C | 65% | 1014.4 hPa | - | - | - | - |
| 1777902662 | 13.33° C | 68% | 1015.1 hPa | - | - | - | - |
| 1777901768 | 13.33° C | 71% | 1015.5 hPa | - | - | - | - |
| 1777900863 | 13.33° C | 74% | 1015.6 hPa | - | - | - | - |
* Rain since midnight (hover to see other rain measurements)
** Current wind speed in m/s (hover to see current wind gust speed)